Tracking 34719 objects as of 13-Jul-2026
HD Live streaming from Space Station
objects crossing your sky now

ORBCOMM FM 34

Track ORBCOMM FM 34 now!
10-day predictions
ORBCOMM FM 34 is classified as:


NORAD ID: 25986
Int'l Code: 1999-065G
Perigee: 769.5 km
Apogee: 775.1 km
Inclination: 45.0 °
Period: 100.1 minutes
Semi major axis: 7143 km
RCS: 0.5409 m2 (medium)
Launch date: December 4, 1999
Source: ORBCOMM (ORB)
Launch site: AIR FORCE EASTERN TEST RANGE (AFETR)
Your satellite tracking list
Your tracking list is empty




NASA's NSSDC Master Catalog

Two Line Element Set (TLE):
1 25986U 99065G   26193.63073280  .00000257  00000-0  13098-3 0  9997
2 25986  45.0393  47.7092 0003894 130.3732 229.7457 14.37983629391087
Source of the keplerian elements: AFSPC